When you browse on this site, cookies collect data to enhance your experience and personalize the content and advertising you see.
Visit our Privacy Policy to learn more. By continuing to use the site, you agree to this use of cookies and data.
  • în România
  • Lista ţărilor
  • Pe 7 zile
  • Temperatura apei
  • Hartă satelitară
  • Meteo pe hartă
  • Widget-uri
  • user-avatar
    Intrare

    Meteo pe oră la Dęblin

    Astăzi, 20 Februarie, Miercuri

    Timp Temperatura Precipitaţii Vânt Presiune Umiditate
    00:00 +5°C° 0 mm 4 m/s 750 mmHg 86%
    01:00 +4°C° 0 mm 3 m/s 750 mmHg 89%
    02:00 +3°C° 0 mm 4 m/s 750 mmHg 89%
    03:00 +3°C° 0 mm 4 m/s 750 mmHg 90%
    04:00 +2°C° 0 mm 5 m/s 750 mmHg 90%
    05:00 +2°C° 0 mm 5 m/s 750 mmHg 89%
    06:00 +2°C° 0 mm 5 m/s 750 mmHg 88%
    07:00 +2°C° 0 mm 5 m/s 751 mmHg 87%
    08:00 +2°C° 0.1 mm 6 m/s 751 mmHg 83%
    09:00 +3°C° 0.1 mm 6 m/s 751 mmHg 79%
    10:00 +3°C° 0.1 mm 6 m/s 752 mmHg 75%
    11:00 +3°C° 0.1 mm 7 m/s 752 mmHg 72%
    12:00 +3°C° 0.1 mm 7 m/s 752 mmHg 69%
    13:00 +4°C° 0.1 mm 7 m/s 752 mmHg 66%
    14:00 +4°C° 0.1 mm 7 m/s 752 mmHg 67%
    15:00 +3°C° 0.1 mm 7 m/s 753 mmHg 68%
    16:00 +3°C° 0.1 mm 6 m/s 753 mmHg 69%
    17:00 +3°C° 0 mm 6 m/s 753 mmHg 71%
    18:00 +3°C° 0 mm 6 m/s 753 mmHg 72%
    19:00 +3°C° 0 mm 6 m/s 754 mmHg 74%
    20:00 +2°C° 0 mm 6 m/s 754 mmHg 76%
    21:00 +2°C° 0 mm 5 m/s 754 mmHg 77%
    22:00 +2°C° 0 mm 5 m/s 755 mmHg 78%
    23:00 +2°C° 0 mm 5 m/s 755 mmHg 79%

    Mâine, 21 Februarie, Joi

    Timp Temperatura Precipitaţii Vânt Presiune Umiditate
    00:00 +3°C° 0 mm 4 m/s 755 mmHg 80%
    01:00 +3°C° 0 mm 4 m/s 755 mmHg 81%
    02:00 +1°C° 0 mm 4 m/s 756 mmHg 83%
    03:00 +2°C° 0 mm 3 m/s 756 mmHg 85%
    04:00 +2°C° 0 mm 3 m/s 756 mmHg 87%
    05:00 +2°C° 0 mm 3 m/s 756 mmHg 89%
    06:00 +2°C° 0 mm 3 m/s 756 mmHg 90%
    07:00 +2°C° 0 mm 3 m/s 756 mmHg 92%
    08:00 +2°C° 0.2 mm 3 m/s 756 mmHg 91%
    09:00 +3°C° 0.2 mm 3 m/s 756 mmHg 91%
    10:00 +3°C° 0.2 mm 3 m/s 756 mmHg 91%
    11:00 +4°C° 0.3 mm 4 m/s 755 mmHg 86%
    12:00 +5°C° 0.3 mm 4 m/s 755 mmHg 82%
    13:00 +6°C° 0.3 mm 5 m/s 755 mmHg 77%
    14:00 +5°C° 0.7 mm 5 m/s 754 mmHg 80%
    15:00 +5°C° 0.7 mm 4 m/s 754 mmHg 83%
    16:00 +4°C° 0.7 mm 4 m/s 753 mmHg 85%
    17:00 +4°C° 0.7 mm 4 m/s 753 mmHg 86%
    18:00 +3°C° 0.7 mm 5 m/s 753 mmHg 87%
    19:00 +3°C° 0.7 mm 5 m/s 753 mmHg 88%
    20:00 +3°C° 0.7 mm 5 m/s 752 mmHg 89%
    21:00 +4°C° 0.7 mm 4 m/s 752 mmHg 91%
    22:00 +4°C° 0.7 mm 4 m/s 752 mmHg 92%
    23:00 +4°C° 0.4 mm 3 m/s 752 mmHg 93%

    Poimâine, 22 Februarie, Vineri

    Timp Temperatura Precipitaţii Vânt Presiune Umiditate
    00:00 +4°C° 0.4 mm 3 m/s 752 mmHg 94%
    01:00 +4°C° 0.4 mm 3 m/s 752 mmHg 95%
    02:00 +3°C° 0.5 mm 4 m/s 752 mmHg 93%
    03:00 0°C° 0.5 mm 5 m/s 753 mmHg 91%
    04:00 -2°C° 0.5 mm 7 m/s 753 mmHg 89%
    05:00 -3°C° 0.3 mm 7 m/s 754 mmHg 85%
    06:00 -3°C° 0.3 mm 7 m/s 755 mmHg 82%
    07:00 -4°C° 0.3 mm 7 m/s 756 mmHg 78%
    08:00 -4°C° 0 mm 7 m/s 758 mmHg 73%
    09:00 -4°C° 0 mm 7 m/s 759 mmHg 68%
    10:00 -4°C° 0 mm 7 m/s 761 mmHg 64%
    11:00 -4°C° 0 mm 6 m/s 761 mmHg 61%
    12:00 -4°C° 0 mm 6 m/s 762 mmHg 58%
    13:00 -4°C° 0 mm 6 m/s 763 mmHg 56%
    14:00 -5°C° 0 mm 6 m/s 764 mmHg 55%
    15:00 -5°C° 0 mm 6 m/s 764 mmHg 55%
    16:00 -5°C° 0 mm 6 m/s 765 mmHg 54%
    17:00 -6°C° 0 mm 5 m/s 765 mmHg 54%
    18:00 -6°C° 0 mm 5 m/s 766 mmHg 54%
    19:00 -7°C° 0 mm 5 m/s 766 mmHg 54%
    20:00 -7°C° 0 mm 5 m/s 767 mmHg 52%
    21:00 -7°C° 0 mm 5 m/s 767 mmHg 49%
    22:00 -7°C° 0 mm 5 m/s 768 mmHg 46%
    23:00 -7°C° 0 mm 5 m/s 768 mmHg 45%

    23 Februarie, Sâmbătă

    Timp Temperatura Precipitaţii Vânt Presiune Umiditate
    00:00 -7°C° 0 mm 5 m/s 768 mmHg 44%
    01:00 -7°C° 0 mm 5 m/s 769 mmHg 43%
    02:00 -7°C° 0 mm 4 m/s 768 mmHg 45%
    03:00 -8°C° 0 mm 4 m/s 768 mmHg 46%
    04:00 -8°C° 0 mm 4 m/s 768 mmHg 48%
    05:00 -8°C° 0 mm 4 m/s 769 mmHg 49%
    06:00 -7°C° 0 mm 3 m/s 769 mmHg 51%
    07:00 -7°C° 0 mm 3 m/s 769 mmHg 52%
    08:00 -7°C° 0 mm 3 m/s 770 mmHg 49%
    09:00 -7°C° 0 mm 4 m/s 770 mmHg 46%
    10:00 -5°C° 0 mm 4 m/s 770 mmHg 42%
    11:00 -5°C° 0 mm 4 m/s 770 mmHg 39%
    12:00 -4°C° 0 mm 3 m/s 770 mmHg 35%
    13:00 -2°C° 0 mm 3 m/s 770 mmHg 32%
    14:00 -2°C° 0 mm 3 m/s 769 mmHg 33%
    15:00 -2°C° 0 mm 3 m/s 769 mmHg 34%
    16:00 -4°C° 0 mm 4 m/s 769 mmHg 36%
    17:00 -4°C° 0 mm 3 m/s 769 mmHg 40%
    18:00 -4°C° 0 mm 3 m/s 769 mmHg 43%
    19:00 -4°C° 0 mm 2 m/s 769 mmHg 47%
    20:00 -4°C° 0 mm 2 m/s 769 mmHg 47%
    21:00 -3°C° 0 mm 2 m/s 769 mmHg 47%
    22:00 -3°C° 0 mm 2 m/s 769 mmHg 48%
    23:00 -3°C° 0 mm 2 m/s 769 mmHg 49%

    24 Februarie, Duminică

    Timp Temperatura Precipitaţii Vânt Presiune Umiditate
    00:00 -3°C° 0 mm 2 m/s 769 mmHg 50%
    01:00 -3°C° 0 mm 2 m/s 769 mmHg 51%
    02:00 -3°C° 0 mm 2 m/s 768 mmHg 50%
    03:00 -3°C° 0 mm 2 m/s 768 mmHg 50%
    04:00 -3°C° 0 mm 2 m/s 768 mmHg 50%
    05:00 -3°C° 0 mm 2 m/s 767 mmHg 49%
    06:00 -3°C° 0 mm 2 m/s 767 mmHg 48%
    07:00 -3°C° 0 mm 2 m/s 767 mmHg 47%
    08:00 -2°C° 0 mm 3 m/s 767 mmHg 44%
    09:00 -1°C° 0 mm 3 m/s 767 mmHg 42%
    10:00 -2°C° 0 mm 4 m/s 767 mmHg 39%
    11:00 -1°C° 0 mm 4 m/s 766 mmHg 42%
    12:00 -1°C° 0 mm 4 m/s 766 mmHg 44%
    13:00 0°C° 0 mm 4 m/s 766 mmHg 47%
    14:00 0°C° 0 mm 4 m/s 766 mmHg 51%
    15:00 +1°C° 0 mm 3 m/s 766 mmHg 54%
    16:00 +1°C° 0 mm 3 m/s 765 mmHg 58%
    17:00 +1°C° 0 mm 2 m/s 766 mmHg 64%
    18:00 -1°C° 0 mm 2 m/s 766 mmHg 69%
    19:00 -1°C° 0 mm 2 m/s 766 mmHg 74%
    20:00 -1°C° 0 mm 2 m/s 766 mmHg 77%
    21:00 -1°C° 0 mm 2 m/s 766 mmHg 79%
    22:00 +1°C° 0 mm 1 m/s 766 mmHg 81%
    23:00 +1°C° 0 mm 1 m/s 766 mmHg 82%

    25 Februarie, Luni

    Timp Temperatura Precipitaţii Vânt Presiune Umiditate
    00:00 +1°C° 0 mm 1 m/s 766 mmHg 83%
    01:00 +1°C° 0 mm 1 m/s 766 mmHg 84%
    02:00 -1°C° 0 mm 2 m/s 766 mmHg 83%
    03:00 -1°C° 0 mm 2 m/s 765 mmHg 82%
    04:00 -1°C° 0 mm 2 m/s 765 mmHg 82%
    05:00 -1°C° 0 mm 2 m/s 765 mmHg 81%
    06:00 -1°C° 0 mm 3 m/s 765 mmHg 80%
    07:00 -1°C° 0 mm 3 m/s 765 mmHg 80%
    08:00 0°C° 0 mm 3 m/s 764 mmHg 76%
    09:00 +1°C° 0 mm 3 m/s 764 mmHg 72%
    10:00 0°C° 0 mm 4 m/s 764 mmHg 68%
    11:00 +1°C° 0 mm 4 m/s 764 mmHg 69%
    12:00 +3°C° 0 mm 4 m/s 763 mmHg 69%
    13:00 +3°C° 0 mm 5 m/s 763 mmHg 69%
    14:00 +3°C° 0 mm 5 m/s 763 mmHg 74%
    15:00 +3°C° 0 mm 4 m/s 763 mmHg 78%
    16:00 +3°C° 0 mm 4 m/s 762 mmHg 83%
    17:00 +1°C° 0 mm 4 m/s 763 mmHg 85%
    18:00 0°C° 0 mm 4 m/s 763 mmHg 87%
    19:00 -1°C° 0 mm 4 m/s 763 mmHg 89%
    20:00 -1°C° 0 mm 4 m/s 763 mmHg 89%
    21:00 -1°C° 0 mm 4 m/s 763 mmHg 89%
    22:00 -1°C° 0 mm 4 m/s 763 mmHg 90%
    23:00 -2°C° 0 mm 4 m/s 763 mmHg 90%
    Arată mai mult